Overview Statistics Trail Chart Weather Telemetry Raw packets
 

This is the latest recevied weather packets stored in our database for station/object KA1JKB. If no packets are shown the sender has not sent any weather packets the latest 10 day(s).

<< 110 111 112 113 114 >>
Time Temp. Humidity Pressure Rain* Wind** Luminosity Snow
1787621397 16.11° C 92% 1015.4 hPa 0 mm - 0 W/m² -
1787621094 16.11° C 93% 1015.5 hPa 0 mm - 0 W/m² -
1787620789 15.56° C 93% 1015.4 hPa 0 mm - 0 W/m² -
1787620489 16.11° C 92% 1015.3 hPa 0 mm - 0 W/m² -
1787620185 16.11° C 91% 1015 hPa 0 mm - 0 W/m² -
1787619881 16.67° C 89% 1015 hPa 0 mm - 0 W/m² -
1787619575 16.67° C 88% 1015.1 hPa 0 mm - 0 W/m² -
1787619270 17.22° C 88% 1014.9 hPa 0 mm - 0 W/m² -
1787618965 17.22° C 87% 1014.9 hPa 0 mm - 0 W/m² -
1787618661 17.22° C 87% 1015 hPa 0 mm - 0 W/m² -
1787618358 17.22° C 87% 1014.9 hPa 0 mm - 0 W/m² -
1787618054 17.78° C 87% 1015.1 hPa 0 mm - 0 W/m² -
1787617754 17.78° C 87% 1014.9 hPa 0 mm - 1 W/m² -
1787617453 17.78° C 86% 1015 hPa 0 mm - 2 W/m² -
1787617149 18.33° C 85% 1014.8 hPa 0 mm - 5 W/m² -
1787616843 18.89° C 84% 1014.8 hPa 0 mm - 7 W/m² -
1787616542 18.89° C 82% 1014.7 hPa 0 mm - 10 W/m² -
1787616241 19.44° C 81% 1014.4 hPa 0 mm - 14 W/m² -
1787615939 20° C 79% 1014.6 hPa 0 mm - 17 W/m² -
1787615634 20° C 78% 1014.6 hPa 0 mm - 21 W/m² -
1787615330 20° C 76% 1014.7 hPa 0 mm - 23 W/m² -
1787615026 20° C 75% 1014.6 hPa 0 mm - 27 W/m² -
1787614722 20.56° C 75% 1014.8 hPa 0 mm - 30 W/m² -
1787614418 20.56° C 74% 1014.7 hPa 0 mm - 32 W/m² -
1787614115 21.11° C 73% 1014.7 hPa 0 mm - 32 W/m² -

* Rain latest hour (hover to see other rain measurements)
** Current wind speed in m/s (hover to see current wind gust speed)